Location: Johnson City
(36.3130°N, 82.3540°W)
Time: 19:58:08
(UTC-05:00)

Hubble Space Telescope - Pass Details

Date: 01 December 2021
Orbit: 535 x 538 km, 28.5° (Epoch: 23 January)

Event Time Altitude Azimuth Distance (km) Brightness Sun altitude
Exits shadow 05:25:12 24° 189° (S) 1,109 2.3 -23.1°
Maximum altitude 05:25:16 24° 187° (S) 1,108 2.3 -23.1°
Drops below altitude 10° 05:28:38 10° 132° (SE) 1,772 4.2 -22.5°
Sets 05:31:11 0° 119° (ESE) 2,662 5.6 -22.0°
